• In Hungary
  • List of Countries
  • For 7 days
  • Water Temperature
  • Satellite Maps
  • Weather Map
  • News
  • Weather Widgets
  • user-avatar
    Login

    Hourly Weather Kamion

    Today, 22 June, Friday

    Time Temperature Precipitation Wind Pressure Humidity
    00:00 +12°C° 0 mm 5 mps 749 mmHg 81%
    01:00 +11°C° 0 mm 4 mps 750 mmHg 80%
    02:00 +11°C° 0 mm 4 mps 750 mmHg 79%
    03:00 +10°C° 0 mm 4 mps 750 mmHg 78%
    04:00 +10°C° 0 mm 4 mps 751 mmHg 77%
    05:00 +10°C° 0 mm 5 mps 751 mmHg 73%
    06:00 +12°C° 0 mm 5 mps 751 mmHg 70%
    07:00 +11°C° 0 mm 6 mps 751 mmHg 67%
    08:00 +13°C° 0 mm 6 mps 751 mmHg 62%
    09:00 +15°C° 0 mm 6 mps 751 mmHg 57%
    10:00 +16°C° 0 mm 6 mps 751 mmHg 53%
    11:00 +16°C° 0 mm 6 mps 751 mmHg 51%
    12:00 +17°C° 0 mm 6 mps 751 mmHg 49%
    13:00 +19°C° 0 mm 6 mps 751 mmHg 47%
    14:00 +17°C° 0.2 mm 5 mps 751 mmHg 49%
    15:00 +17°C° 0.2 mm 5 mps 751 mmHg 52%
    16:00 +17°C° 0.2 mm 5 mps 751 mmHg 55%
    17:00 +17°C° 0 mm 4 mps 751 mmHg 59%
    18:00 +16°C° 0 mm 3 mps 751 mmHg 64%
    19:00 +14°C° 0 mm 3 mps 751 mmHg 68%
    20:00 +13°C° 0 mm 3 mps 751 mmHg 72%
    21:00 +12°C° 0 mm 3 mps 751 mmHg 76%
    22:00 +11°C° 0 mm 3 mps 752 mmHg 80%
    23:00 +10°C° 0 mm 3 mps 752 mmHg 82%

    Tomorrow, 23 June, Saturday

    Time Temperature Precipitation Wind Pressure Humidity
    00:00 +10°C° 0 mm 3 mps 752 mmHg 85%
    01:00 +9°C° 0 mm 3 mps 752 mmHg 88%
    02:00 +9°C° 0 mm 3 mps 752 mmHg 89%
    03:00 +9°C° 0 mm 3 mps 752 mmHg 90%
    04:00 +9°C° 0 mm 3 mps 752 mmHg 91%
    05:00 +10°C° 0 mm 3 mps 752 mmHg 85%
    06:00 +12°C° 0 mm 4 mps 752 mmHg 78%
    07:00 +14°C° 0 mm 5 mps 752 mmHg 72%
    08:00 +14°C° 0.3 mm 5 mps 752 mmHg 70%
    09:00 +15°C° 0.3 mm 6 mps 751 mmHg 68%
    10:00 +15°C° 0.3 mm 6 mps 751 mmHg 66%
    11:00 +15°C° 0.4 mm 6 mps 751 mmHg 66%
    12:00 +15°C° 0.4 mm 6 mps 751 mmHg 66%
    13:00 +15°C° 0.4 mm 6 mps 751 mmHg 67%
    14:00 +15°C° 0.3 mm 6 mps 751 mmHg 67%
    15:00 +15°C° 0.3 mm 6 mps 751 mmHg 68%
    16:00 +15°C° 0.3 mm 6 mps 751 mmHg 69%
    17:00 +15°C° 0.3 mm 5 mps 751 mmHg 73%
    18:00 +14°C° 0.3 mm 4 mps 751 mmHg 77%
    19:00 +14°C° 0.3 mm 4 mps 751 mmHg 82%
    20:00 +13°C° 0.1 mm 4 mps 751 mmHg 85%
    21:00 +12°C° 0.1 mm 3 mps 751 mmHg 89%
    22:00 +11°C° 0.1 mm 3 mps 751 mmHg 92%
    23:00 +11°C° 0 mm 3 mps 751 mmHg 93%

    Day after tomorrow, 24 June, Sunday

    Time Temperature Precipitation Wind Pressure Humidity
    00:00 +11°C° 0 mm 3 mps 751 mmHg 93%
    01:00 +11°C° 0 mm 3 mps 751 mmHg 94%
    02:00 +11°C° 0.1 mm 3 mps 751 mmHg 94%
    03:00 +10°C° 0.1 mm 3 mps 751 mmHg 94%
    04:00 +10°C° 0.1 mm 3 mps 751 mmHg 94%
    05:00 +11°C° 0.1 mm 4 mps 751 mmHg 90%
    06:00 +12°C° 0.1 mm 4 mps 752 mmHg 86%
    07:00 +13°C° 0.1 mm 4 mps 752 mmHg 82%
    08:00 +14°C° 0.4 mm 4 mps 752 mmHg 76%
    09:00 +15°C° 0.4 mm 5 mps 752 mmHg 71%
    10:00 +16°C° 0.4 mm 5 mps 752 mmHg 66%
    11:00 +17°C° 0.5 mm 5 mps 752 mmHg 66%
    12:00 +17°C° 0.5 mm 6 mps 752 mmHg 65%
    13:00 +17°C° 0.5 mm 6 mps 752 mmHg 65%
    14:00 +19°C° 0.4 mm 5 mps 752 mmHg 64%
    15:00 +19°C° 0.4 mm 5 mps 752 mmHg 63%
    16:00 +19°C° 0.4 mm 5 mps 752 mmHg 62%
    17:00 +18°C° 0.6 mm 4 mps 752 mmHg 69%
    18:00 +17°C° 0.6 mm 3 mps 752 mmHg 76%
    19:00 +16°C° 0.6 mm 2 mps 752 mmHg 83%
    20:00 +15°C° 0.1 mm 2 mps 752 mmHg 85%
    21:00 +14°C° 0.1 mm 2 mps 753 mmHg 88%
    22:00 +13°C° 0.1 mm 2 mps 753 mmHg 90%
    23:00 +13°C° 0.1 mm 2 mps 753 mmHg 91%

    25 June, Monday

    Time Temperature Precipitation Wind Pressure Humidity
    00:00 +13°C° 0.1 mm 2 mps 753 mmHg 92%
    01:00 +12°C° 0.1 mm 2 mps 753 mmHg 93%
    02:00 +12°C° 0 mm 1 mps 753 mmHg 93%
    03:00 +12°C° 0 mm 1 mps 754 mmHg 94%
    04:00 +12°C° 0 mm 1 mps 754 mmHg 94%
    05:00 +13°C° 0 mm 1 mps 754 mmHg 89%
    06:00 +14°C° 0 mm 2 mps 754 mmHg 84%
    07:00 +16°C° 0 mm 2 mps 755 mmHg 79%
    08:00 +17°C° 0.2 mm 2 mps 755 mmHg 71%
    09:00 +18°C° 0.2 mm 2 mps 755 mmHg 64%
    10:00 +20°C° 0.2 mm 2 mps 755 mmHg 57%
    11:00 +20°C° 0 mm 2 mps 755 mmHg 53%
    12:00 +21°C° 0 mm 3 mps 755 mmHg 48%
    13:00 +22°C° 0 mm 3 mps 755 mmHg 43%
    14:00 +22°C° 0 mm 3 mps 755 mmHg 43%
    15:00 +22°C° 0 mm 3 mps 755 mmHg 43%
    16:00 +22°C° 0 mm 3 mps 755 mmHg 42%
    17:00 +21°C° 0 mm 3 mps 755 mmHg 49%
    18:00 +20°C° 0 mm 3 mps 755 mmHg 57%
    19:00 +18°C° 0 mm 3 mps 756 mmHg 64%
    20:00 +17°C° 0 mm 2 mps 756 mmHg 67%
    21:00 +16°C° 0 mm 2 mps 756 mmHg 71%
    22:00 +15°C° 0 mm 1 mps 756 mmHg 75%
    23:00 +14°C° 0 mm 1 mps 756 mmHg 77%

    26 June, Tuesday

    Time Temperature Precipitation Wind Pressure Humidity
    00:00 +14°C° 0 mm 1 mps 756 mmHg 79%
    01:00 +13°C° 0 mm 1 mps 756 mmHg 80%
    02:00 +13°C° 0 mm 1 mps 756 mmHg 82%
    03:00 +13°C° 0 mm 1 mps 756 mmHg 83%
    04:00 +13°C° 0 mm 1 mps 756 mmHg 84%
    05:00 +14°C° 0 mm 1 mps 757 mmHg 78%
    06:00 +16°C° 0 mm 1 mps 757 mmHg 73%
    07:00 +19°C° 0 mm 1 mps 757 mmHg 67%
    08:00 +20°C° 0 mm 1 mps 757 mmHg 61%
    09:00 +22°C° 0 mm 1 mps 757 mmHg 54%
    10:00 +23°C° 0 mm 1 mps 757 mmHg 48%
    11:00 +23°C° 0 mm 2 mps 756 mmHg 47%
    12:00 +24°C° 0 mm 2 mps 756 mmHg 47%
    13:00 +24°C° 0 mm 2 mps 756 mmHg 46%
    14:00 +24°C° 0 mm 2 mps 755 mmHg 48%
    15:00 +24°C° 0 mm 3 mps 755 mmHg 49%
    16:00 +24°C° 0 mm 3 mps 755 mmHg 50%
    17:00 +23°C° 0.1 mm 2 mps 755 mmHg 57%
    18:00 +21°C° 0.1 mm 2 mps 755 mmHg 63%
    19:00 +20°C° 0.1 mm 2 mps 755 mmHg 70%
    20:00 +18°C° 0.1 mm 2 mps 755 mmHg 74%
    21:00 +18°C° 0.1 mm 1 mps 755 mmHg 78%
    22:00 +16°C° 0.1 mm 1 mps 755 mmHg 82%
    23:00 +15°C° 0.1 mm 1 mps 755 mmHg 84%

    27 June, Wednesday

    Time Temperature Precipitation Wind Pressure Humidity
    00:00 +15°C° 0.1 mm 1 mps 755 mmHg 86%
    01:00 +14°C° 0.1 mm 1 mps 755 mmHg 88%
    02:00 +14°C° 0 mm 2 mps 755 mmHg 89%
    03:00 +14°C° 0 mm 2 mps 755 mmHg 90%
    04:00 +14°C° 0 mm 2 mps 754 mmHg 92%
    05:00 +15°C° 0.1 mm 2 mps 755 mmHg 87%
    06:00 +16°C° 0.1 mm 3 mps 755 mmHg 83%
    07:00 +18°C° 0.1 mm 3 mps 755 mmHg 78%
    08:00 +19°C° 0.1 mm 3 mps 754 mmHg 70%
    09:00 +21°C° 0.1 mm 4 mps 754 mmHg 61%
    10:00 +22°C° 0.1 mm 4 mps 754 mmHg 52%
    11:00 +23°C° 0 mm 4 mps 754 mmHg 50%
    12:00 +23°C° 0 mm 4 mps 753 mmHg 47%
    13:00 +25°C° 0 mm 4 mps 753 mmHg 45%
    14:00 +25°C° 0 mm 5 mps 753 mmHg 47%
    15:00 +25°C° 0 mm 5 mps 753 mmHg 48%
    16:00 +23°C° 0 mm 5 mps 752 mmHg 50%
    17:00 +22°C° 0.1 mm 4 mps 753 mmHg 57%
    18:00 +21°C° 0.1 mm 4 mps 753 mmHg 64%
    19:00 +19°C° 0.1 mm 4 mps 753 mmHg 71%
    20:00 +18°C° 0 mm 3 mps 753 mmHg 77%
    21:00 +17°C° 0 mm 3 mps 753 mmHg 83%
    22:00 +16°C° 0 mm 3 mps 753 mmHg 89%
    23:00 +14°C° 0 mm 3 mps 753 mmHg 91%
    Show more